TURKSAT 1C

导读

TÜRKSAT 1C是土耳其的通信卫星,由阿尔卡特阿莱尼亚航天公司制造,于1996年7月9日由阿里亚娜4型火箭发射升空,发射质量1743kg,设计寿命10-13年,最终定点东经42°轨道位置。卫星搭载16台Ku频段转发器,信号覆盖土耳其、欧洲及中亚地区,为当地提供通信广播服务。它从1996年服务至2010年9月,因Türksat 3A接替而结束任务,实际在轨服役超14年,超出设计使用寿命,完成了土耳其早期卫星通信布局。

基本信息
目录编号:
23949
目录名称:
TURKSAT 1C
国际标识:
1996-040B
轨道中心:
EARTH
卫星名称:
TURKSAT 1C
卫星全名:
--
卫星状态:
在轨 (已飞行11024 天)
发射日期:
1996-07-09 UTC
国别 :
土耳其 (TR)
星等 :
--
该卫星已列入 空间交会检测服务 Space Conjunction Data Service (SCDS) ,当前飞行风险评估等级: 无高风险
轨道信息
数据来源 国际轨道数据 AOE轨道数据
星历时间 2026-09-14T01:52:42+0800
10小时前
查看轨道信息
2026-09-13T01:00:00+0800
1天前
查看轨道信息
半长轴 42155.956km 42155.928km
偏心率 0.0007883 0.0007611
轨道倾角 12.192° 12.190°
近地点辐角 178.624° 175.570°
升交点赤经 29.453° 29.464°
平近点角 179.523° 168.246°
近地点 35744.587km 35745.706km
远地点 35811.051km 35809.876km
周期 1435.649分钟 1435.647分钟
每日圈数 1.003031 1.003032
详细信息
使用方式:
暂无
2D轨道图
3D轨道图
轨道高度分析图
轨道倾角分析图
轨道综合分析图
查看轨道综合分析图
与全量物体交会距离演化趋势 订阅飞行安全评估服务
与全量物体交会风险概率演化趋势 订阅飞行安全评估服务